Helicity
56 34 10 8 -4 -11 -19 -22 -24 -19 10 21 33 27 104 105 135 133 79 57 35 35 21 7 17 58 79 68 72 71 76 75 81 82 81 93 87 72 69 70 75 69 94 94
52 33 10 17 16 2 -9 -11 0 5 12 14 48 77 78 149 170 144 126 119 103 80 78 60 48 33 11 21 27 37 68 91 75 84 109 114 101 81 70 52 68 63 96 113
45 27 26 12 28 16 -3 7 4 5 33 34 51 89 91 113 137 97 96 73 83 79 81 76 91 84 78 93 88 89 86 101 126 130 132 141 143 144 134 121 97 110 114 91
51 41 33 34 22 7 8 16 -11 -10 20 52 66 88 122 101 165 150 150 157 167 148 104 98 101 118 125 117 110 119 138 169 199 212 219 204 165 133 122 108 114 110 70 77
35 46 50 50 27 22 7 15 10 29 49 56 75 83 118 123 189 228 243 218 151 93 62 82 103 133 146 173 214 204 194 195 191 166 141 123 109 52 11 25 47 48 56 74
56 45 57 34 25 30 21 50 52 54 61 82 86 90 114 142 182 204 166 143 122 101 92 138 177 195 201 195 186 174 184 158 131 113 72 71 64 53 70 60 37 40 68 67
64 57 41 41 40 37 49 53 56 74 100 89 73 83 159 250 221 195 164 157 117 51 72 163 187 190 195 191 177 165 169 98 46 75 49 80 126 128 110 87 56 70 79 94
53 33 35 27 25 28 45 47 68 71 81 78 65 110 138 205 205 118 75 19 22 39 62 115 145 119 105 74 67 45 41 85 113 152 182 156 130 108 83 57 56 77 97 118
30 17 12 21 17 19 30 53 39 71 65 63 79 117 143 156 196 95 65 82 63 70 106 104 119 111 79 57 36 50 84 100 123 133 123 103 98 72 47 27 60 82 80 117
28 30 36 19 34 59 53 52 57 78 75 63 73 74 105 82 136 111 68 23 34 63 114 113 92 78 70 86 93 74 79 86 80 65 70 68 54 32 46 51 43 57 100 183
27 48 45 52 71 61 75 93 113 94 93 89 76 57 90 113 121 122 24 -45 12 57 56 34 37 44 38 35 54 53 58 73 74 56 66 72 89 60 22 18 82 138 169 178
23 56 40 71 76 72 90 105 102 101 86 114 157 157 77 119 85 60 -59 4 55 42 35 10 59 54 50 71 78 92 113 106 94 70 91 97 74 44 46 96 128 182 264 278
39 59 55 89 109 88 124 101 102 135 134 134 170 127 124 108 115 68 67 144 129 68 58 79 110 74 89 95 116 116 83 63 78 116 121 127 109 97 102 158 218 231 261 233
81 84 101 105 97 113 105 106 116 133 152 141 224 126 82 68 95 96 165 147 102 41 44 61 84 82 83 89 77 60 63 75 94 118 135 155 137 79 117 144 123 100 103 74
89 99 131 107 79 108 107 75 92 130 137 172 98 81 91 90 114 167 157 115 57 19 10 20 47 96 91 107 110 71 65 79 102 104 121 131 94 120 132 85 74 62 84 88
102 130 141 113 99 116 84 92 83 86 48 77 58 74 49 111 196 162 118 88 67 67 19 14 61 101 124 151 146 53 41 46 59 94 106 143 168 145 125 118 77 78 72 97
135 167 180 140 160 91 98 72 53 71 90 125 117 89 132 160 173 128 89 60 72 40 65 81 129 126 153 111 41 55 66 65 96 114 139 142 103 98 107 116 107 101 115 117
193 220 211 244 195 171 133 107 106 85 26 83 92 93 96 135 153 113 131 175 131 100 113 118 107 121 85 52 85 97 106 105 88 122 148 141 126 123 126 117 112 113 117 95
161 226 222 225 218 182 111 38 79 100 81 89 134 120 152 140 122 111 204 202 147 143 65 86 92 54 46 57 94 98 110 142 125 163 164 143 141 152 136 127 119 100 78 74
205 205 222 243 200 185 118 104 87 89 101 134 119 121 139 154 152 158 345 313 8 42 137 92 57 43 52 68 72 84 86 121 151 178 140 151 146 123 110 106 87 83 74 76
185 184 189 146 197 174 120 54 136 162 144 178 155 149 140 152 245 359 216 -25 80 110 115 72 60 67 69 59 76 91 105 110 98 117 125 113 110 97 94 90 86 81 79 88
145 157 157 195 168 80 91 123 129 137 142 89 111 131 146 264 320 223 70 81 93 57 66 78 78 86 83 92 117 113 108 115 122 130 121 108 100 90 87 84 81 82 82 78
201 180 170 209 238 180 116 140 133 124 134 140 145 299 285 274 183 184 110 93 46 106 117 103 106 114 107 101 119 114 108 137 144 136 120 107 94 85 79 74 86 84 80 77
240 227 197 190 219 166 119 104 180 242 271 261 233 172 258 219 139 87 65 61 96 76 92 104 123 134 112 108 127 118 136 153 143 129 120 105 90 79 74 88 93 88 80 85
261 215 192 196 125 82 81 211 195 233 208 131 150 135 76 52 -32 -5 51 41 50 76 86 118 131 141 118 122 125 131 141 145 129 126 114 107 96 82 83 93 86 86 94 93
287 227 221 217 123 152 207 207 203 164 33 34 64 57 65 53 54 58 56 69 66 52 80 119 121 131 123 139 125 125 131 135 124 112 117 111 91 87 88 88 74 80 87 89
Wind_Speed
27 25 27 29 30 29 32 36 39 41 35 44 39 38 44 40 35 37 37 37 34 27 24 25 28 25 21 18 16 17 21 28 37 42 46 47 49 51 52 53 55 53 53 53
28 28 29 29 31 33 36 39 40 38 37 38 41 36 37 38 37 38 38 39 39 36 35 36 37 34 28 27 25 30 36 41 43 44 48 50 54 56 59 60 62 65 65 63
26 29 30 32 35 38 40 40 44 45 49 34 36 33 35 35 36 37 39 38 39 37 37 40 42 42 42 41 41 40 42 45 49 52 55 57 56 57 62 70 76 78 79 79
29 32 30 33 38 42 44 41 52 51 43 34 39 27 39 34 35 38 40 42 43 44 43 46 46 47 47 46 45 44 44 46 53 57 60 63 65 69 71 75 78 83 83 84
32 32 36 39 42 43 45 53 49 42 34 32 36 34 34 33 35 41 44 48 50 51 49 47 47 46 47 47 47 47 48 53 59 61 63 66 69 71 77 82 88 87 86 86
31 33 36 41 43 42 50 45 40 36 34 37 33 37 36 35 37 41 44 50 53 55 50 46 44 45 48 50 52 53 57 57 60 65 66 71 79 85 90 97 99 98 96 92
38 38 38 43 47 41 51 46 44 41 40 42 34 42 34 31 39 44 48 51 54 54 52 49 49 51 54 57 58 57 59 62 69 76 81 83 82 85 88 94 97 99 95 91
37 38 40 42 41 43 44 42 41 47 44 46 43 39 31 29 39 43 46 49 51 52 50 50 53 56 58 59 63 64 72 82 84 83 81 78 78 83 90 93 95 94 93 87
36 34 38 41 40 38 38 42 36 41 43 49 44 39 30 25 43 48 52 55 54 53 56 61 63 64 63 67 70 76 80 78 75 76 75 75 79 87 90 93 95 94 87 74
37 34 35 39 34 42 38 33 44 45 50 51 45 46 43 30 45 53 55 54 56 55 63 70 71 71 70 66 75 75 74 74 73 75 72 75 82 86 91 97 97 91 79 66
40 35 36 37 44 41 40 38 40 38 43 50 56 46 39 36 44 57 51 52 55 58 65 67 67 69 69 63 71 74 75 75 76 77 74 80 87 92 95 95 90 80 65 58
42 37 40 40 34 37 35 37 40 45 46 46 50 55 39 37 45 54 52 55 57 61 67 68 69 69 72 75 78 81 82 80 79 78 80 86 89 92 93 86 78 67 64 60
40 43 49 42 40 38 40 39 43 42 43 44 51 58 43 39 55 61 66 65 68 68 70 71 74 78 79 80 83 84 85 83 81 80 84 86 87 87 83 76 70 62 60 61
39 41 41 44 45 44 47 43 38 41 48 50 44 53 55 57 61 63 59 65 65 67 69 74 77 80 80 82 83 86 86 84 83 84 86 85 82 76 72 67 66 63 60 57
40 44 42 43 42 46 46 47 41 39 38 46 48 53 54 59 66 56 66 69 72 75 73 75 80 83 82 86 89 90 90 87 83 84 85 80 72 68 69 64 61 58 55 56
44 47 50 57 52 50 54 53 46 32 36 42 42 47 60 57 46 64 70 73 75 73 71 76 79 82 84 91 95 93 89 87 82 87 84 76 74 67 68 59 59 59 60 61
44 47 55 62 59 70 67 42 39 44 44 50 57 66 58 53 60 75 78 73 72 73 75 79 78 82 87 90 88 89 88 84 86 84 78 71 68 64 63 61 62 62 62 61
43 48 51 61 67 64 49 46 50 52 55 52 58 63 59 57 69 75 71 71 74 75 73 74 78 82 86 89 87 84 82 84 78 78 73 71 68 65 62 63 65 66 64 64
38 45 58 62 58 63 60 47 48 53 63 56 58 60 67 70 79 88 68 71 69 68 70 73 78 82 85 85 83 84 80 81 75 75 69 67 64 63 65 67 69 67 66 67
46 45 52 60 65 65 55 52 50 52 72 49 59 76 82 93 105 98 69 66 61 67 71 76 77 79 82 85 84 82 81 79 72 68 66 63 60 62 65 67 67 65 64 64
57 56 59 56 63 61 52 48 47 66 75 64 69 80 82 86 80 71 67 61 66 69 70 71 77 79 81 82 80 81 79 76 64 63 60 59 59 62 63 63 62 64 65 65
57 59 62 54 55 64 40 52 62 68 74 86 77 77 78 72 72 67 68 71 72 74 74 76 78 79 77 72 75 77 76 67 63 60 59 59 60 60 59 61 62 64 63 65
54 42 55 45 44 50 55 64 65 72 80 76 71 69 65 70 68 72 72 74 79 79 75 75 76 76 73 71 69 74 70 65 60 57 56 58 58 58 58 60 62 63 62 64
46 41 48 53 48 51 67 66 68 62 63 65 61 61 65 73 70 75 76 79 80 79 79 79 77 77 77 70 69 69 63 57 55 54 54 56 57 59 59 57 58 59 62 65
46 48 46 54 60 63 61 61 61 58 62 57 57 59 65 71 73 75 79 84 85 85 83 81 80 78 75 70 70 63 57 53 52 50 51 54 55 59 59 56 56 57 56 60
38 42 53 69 63 72 78 56 60 54 55 59 63 67 68 71 79 81 85 86 87 91 89 86 79 75 72 69 65 58 51 49 46 47 50 52 54 56 56 56 58 53 54 57
Wind_Direction
312 325 313 308 302 297 287 284 268 281 327 315 338 345 338 348 4 5 4 3 6 16 12 2 348 345 349 357 356 348 343 342 340 341 341 341 341 341 342 342 342 339 337 333
323 315 316 332 318 310 305 303 316 310 338 346 337 348 354 357 2 2 3 7 11 20 19 12 9 12 15 6 0 349 344 341 341 342 340 339 336 335 334 336 337 336 334 331
334 328 345 314 312 308 313 322 319 314 309 339 343 352 348 354 1 6 6 12 13 14 11 5 359 359 356 353 349 346 344 343 342 340 339 338 338 337 334 332 330 330 329 327
333 328 338 336 322 317 312 326 302 302 317 332 333 346 346 355 357 355 358 1 358 353 353 351 349 349 349 349 350 349 350 349 346 344 341 339 337 333 332 329 328 327 326 324
327 327 322 323 325 332 318 317 321 327 331 335 333 338 349 359 354 350 351 351 348 344 344 346 348 353 356 356 355 354 350 345 342 342 340 338 335 333 331 328 327 327 326 325
339 338 337 325 328 332 329 331 335 338 335 325 337 337 341 345 350 350 354 355 353 350 352 353 357 358 354 351 347 345 343 343 342 341 340 337 333 330 328 326 325 325 325 324
333 331 333 336 326 331 327 326 319 321 323 321 338 332 341 358 355 353 352 355 354 356 357 360 359 355 351 347 346 346 343 340 338 336 334 332 330 329 328 327 326 325 325 324
347 338 340 338 340 330 335 333 324 315 318 321 331 330 340 360 359 1 359 356 355 355 358 357 353 349 346 346 345 343 338 334 333 332 332 332 332 330 329 328 327 325 325 324
19 7 347 350 348 344 342 337 344 328 327 320 328 336 346 340 345 351 350 349 349 349 346 343 341 342 342 340 340 338 336 336 336 335 334 333 332 331 329 328 328 326 326 326
24 19 7 1 7 355 348 356 328 331 320 321 329 332 331 330 330 342 345 346 346 346 341 337 337 337 338 338 338 337 336 336 335 335 334 333 333 333 331 330 329 328 329 329
17 15 5 3 345 346 344 344 344 343 335 326 325 333 339 340 337 338 345 346 345 345 342 341 342 342 342 341 338 338 337 335 334 335 335 334 333 333 333 332 333 333 334 335
13 11 2 356 4 0 355 344 340 335 331 331 327 329 342 341 340 339 342 343 342 342 342 343 343 343 341 339 339 339 339 337 336 335 334 333 333 335 335 336 338 339 339 341
18 6 353 354 355 352 345 342 338 336 335 327 325 327 342 338 335 335 334 336 338 338 341 343 342 342 341 339 339 338 339 338 337 336 334 334 335 336 338 341 344 345 342 339
15 7 359 348 342 340 332 332 332 329 326 324 317 321 326 328 332 333 337 338 338 337 339 340 341 341 340 342 342 340 340 340 338 336 335 334 336 340 342 342 344 344 344 343
11 359 356 347 341 336 332 325 323 317 316 321 325 324 326 330 330 336 336 336 335 334 336 338 339 340 341 341 340 340 339 339 339 339 338 338 338 341 343 344 346 346 346 344
1 355 351 343 342 340 334 327 321 322 324 322 322 320 328 332 338 334 334 334 334 336 337 337 339 341 341 340 339 340 341 341 343 340 339 340 342 343 344 346 346 345 343 342
354 353 347 341 341 332 330 337 339 333 331 328 327 329 335 332 331 332 333 334 335 335 335 337 340 340 340 341 342 342 342 343 343 344 346 347 348 349 348 348 347 347 345 344
351 348 345 338 338 334 346 337 327 324 324 327 326 329 331 330 331 333 334 335 334 335 336 338 339 340 342 343 343 344 344 343 345 346 348 349 349 349 351 349 347 345 345 343
350 346 340 336 337 334 339 343 338 332 326 330 331 334 332 332 331 330 333 335 337 338 339 340 341 342 342 343 344 344 344 346 345 346 349 351 350 350 348 347 346 346 344 342
348 345 336 332 329 332 342 343 344 340 326 343 339 331 330 329 325 329 336 339 339 340 340 340 341 341 342 343 343 345 344 344 344 348 348 351 351 350 349 348 347 348 347 345
336 335 328 326 325 326 335 342 347 332 330 336 333 330 329 328 329 334 338 339 339 338 338 339 339 339 340 341 345 347 348 349 351 350 351 353 353 351 351 351 352 350 348 346
333 331 329 332 330 331 352 343 333 332 329 327 328 330 331 336 338 339 338 337 337 336 337 337 338 338 339 342 345 345 348 352 352 351 352 352 353 354 355 354 354 353 352 349
329 329 327 325 324 329 330 328 327 329 327 331 333 338 341 340 339 338 336 335 335 334 335 336 336 336 339 340 341 342 345 348 350 351 352 353 355 357 357 356 355 355 355 354
335 331 323 324 326 324 327 325 332 335 335 340 342 340 340 338 338 335 334 334 334 334 334 335 334 333 334 338 339 339 344 349 350 351 353 355 356 357 358 359 359 359 357 355
325 331 326 322 324 325 332 334 335 338 338 345 343 341 337 336 335 333 331 331 333 333 332 332 332 332 333 336 336 339 344 347 349 352 354 356 359 359 360 2 2 1 1 360
328 325 324 324 327 324 328 338 338 341 344 343 339 337 339 337 334 334 332 332 332 332 332 331 331 332 333 334 336 339 343 347 350 353 355 358 0 1 3 5 4 8 7 6